BAW381 LATI-EGLL

Flight info

Callsign BAW381
Flight time N/A
Altitude 18000
Route INLOT L604 RETRA/N0431F360 DCT POD DCT GACMO DCT NAVSU DCT NEMEK/N0427F380 DCT MODSA DCT BABEG DCT LIRSU DCT DENUT L608 LOGAN LOGAN2H
Aircraft A320/M-SDE3FGIJ1KRWXY/SB1

Departure

Time 2026-05-01 10:26
Airport Tirana International Airport Mother Teresa (LATI)

Arrival

Time N/A
Airport London Heathrow Airport (EGLL)
Time Latitude Longitude Altitude Speed Heading
2026-05-01 09:46 41.41949 19.71513 123 ft 0 kts 264°
2026-05-01 10:16 41.41949 19.71516 123 ft 3 kts 263°
2026-05-01 10:16 41.41954 19.71550 122 ft 4 kts 242°
2026-05-01 10:16 41.41985 19.71575 118 ft 1 kts 174°
2026-05-01 10:17 41.41987 19.71575 118 ft 0 kts 174°
2026-05-01 10:20 41.41982 19.71576 118 ft 2 kts 174°
2026-05-01 10:21 41.41959 19.71579 118 ft 5 kts 174°
2026-05-01 10:21 41.41820 19.71599 121 ft 14 kts 174°
2026-05-01 10:21 41.41720 19.71613 123 ft 15 kts 174°
2026-05-01 10:22 41.41485 19.71644 127 ft 19 kts 174°
2026-05-01 10:22 41.41198 19.71682 125 ft 22 kts 174°
2026-05-01 10:23 41.41052 19.71701 128 ft 19 kts 174°
2026-05-01 10:23 41.40775 19.71757 132 ft 22 kts 171°
2026-05-01 10:23 41.40626 19.71778 132 ft 20 kts 175°
2026-05-01 10:24 41.40404 19.71816 132 ft 15 kts 156°
2026-05-01 10:24 41.40262 19.71949 133 ft 10 kts 139°
2026-05-01 10:25 41.40247 19.72143 133 ft 11 kts 84°
2026-05-01 10:25 41.40377 19.72204 132 ft 32 kts 354°
2026-05-01 10:26 41.40851 19.72140 133 ft 100 kts 354°
2026-05-01 10:26 41.41715 19.72032 172 ft 145 kts 356°
2026-05-01 10:26 41.43736 19.71739 1439 ft 148 kts 357°
2026-05-01 10:27 41.46010 19.71559 2310 ft 182 kts 359°
2026-05-01 10:27 41.48861 19.71315 3101 ft 230 kts 357°
2026-05-01 10:28 41.50537 19.71131 3656 ft 252 kts 357°
2026-05-01 10:28 41.54085 19.70683 5475 ft 266 kts 352°
2026-05-01 10:28 41.55884 19.69968 6401 ft 273 kts 340°
2026-05-01 10:29 41.59407 19.67833 8252 ft 281 kts 336°
2026-05-01 10:29 41.61177 19.66695 9211 ft 283 kts 337°
2026-05-01 10:30 41.64829 19.64453 10631 ft 304 kts 338°
2026-05-01 10:30 41.68854 19.62108 11869 ft 321 kts 338°
2026-05-01 10:31 41.72968 19.59739 13495 ft 326 kts 338°
2026-05-01 10:31 41.77167 19.57331 14966 ft 331 kts 338°
2026-05-01 10:32 41.81455 19.54865 16221 ft 340 kts 337°
2026-05-01 10:32 41.83642 19.53606 16857 ft 344 kts 337°
2026-05-01 10:32 41.88069 19.51051 18243 ft 349 kts 337°
2026-05-01 10:33 41.92582 19.48435 19452 ft 356 kts 337°
2026-05-01 10:33 41.97145 19.45790 20635 ft 364 kts 337°
2026-05-01 10:34 41.99491 19.44488 21281 ft 365 kts 339°
2026-05-01 10:34 42.01884 19.43296 21888 ft 368 kts 340°
2026-05-01 10:34 42.04303 19.42169 22528 ft 369 kts 341°
2026-05-01 10:35 42.09225 19.39941 23636 ft 377 kts 341°
2026-05-01 10:35 42.11721 19.38789 24128 ft 380 kts 340°
2026-05-01 10:35 42.14227 19.37612 24614 ft 383 kts 340°
2026-05-01 10:35 42.16746 19.36414 25129 ft 385 kts 340°
2026-05-01 10:36 42.21833 19.33981 26016 ft 391 kts 340°
2026-05-01 10:36 42.24406 19.32742 26487 ft 394 kts 340°
2026-05-01 10:36 42.26982 19.31456 26941 ft 396 kts 339°
2026-05-01 10:37 42.29536 19.30153 27394 ft 398 kts 339°
2026-05-01 10:37 42.34738 19.27465 28279 ft 402 kts 338°
2026-05-01 10:37 42.37359 19.26099 28704 ft 404 kts 336°
2026-05-01 10:38 42.39856 19.24352 29161 ft 405 kts 327°
2026-05-01 10:38 42.42206 19.22235 29607 ft 407 kts 326°
2026-05-01 10:38 42.44555 19.20097 30154 ft 405 kts 326°
2026-05-01 10:38 42.46896 19.17966 30580 ft 406 kts 326°
2026-05-01 10:39 42.49250 19.15819 30863 ft 411 kts 326°
2026-05-01 10:39 42.51634 19.13641 31127 ft 414 kts 326°
2026-05-01 10:39 42.54027 19.11453 31463 ft 417 kts 326°
2026-05-01 10:39 42.56449 19.09235 31748 ft 420 kts 326°
2026-05-01 10:40 42.58871 19.07021 32194 ft 420 kts 326°
2026-05-01 10:40 42.61261 19.04833 32666 ft 419 kts 326°
2026-05-01 10:40 42.63672 19.02628 33139 ft 419 kts 327°
2026-05-01 10:40 42.66084 19.00423 33675 ft 416 kts 326°
2026-05-01 10:41 42.68468 18.98239 34296 ft 411 kts 326°
2026-05-01 10:41 42.70836 18.96067 34653 ft 412 kts 326°
2026-05-01 10:41 42.75607 18.91681 35270 ft 413 kts 326°
2026-05-01 10:42 42.77998 18.89481 35508 ft 417 kts 326°
2026-05-01 10:42 42.80405 18.87264 35777 ft 418 kts 326°
2026-05-01 10:42 42.82810 18.85047 36106 ft 416 kts 326°
2026-05-01 10:43 42.87568 18.80652 36214 ft 407 kts 326°
2026-05-01 10:43 42.92177 18.76377 36220 ft 402 kts 327°
2026-05-01 10:44 42.96847 18.72048 36225 ft 407 kts 327°
2026-05-01 10:44 43.01562 18.67676 36240 ft 413 kts 326°
2026-05-01 10:44 43.03947 18.65458 36416 ft 416 kts 326°
2026-05-01 10:45 43.06335 18.63237 36790 ft 414 kts 326°
2026-05-01 10:45 43.08721 18.61016 37082 ft 415 kts 327°
2026-05-01 10:45 43.11098 18.58800 37560 ft 410 kts 327°
2026-05-01 10:45 43.13439 18.56615 38006 ft 407 kts 326°
2026-05-01 10:46 43.15683 18.54236 38191 ft 409 kts 321°
2026-05-01 10:46 43.20050 18.49221 38243 ft 410 kts 321°
2026-05-01 10:47 43.24435 18.44182 38243 ft 413 kts 321°
2026-05-01 10:47 43.28852 18.39115 38244 ft 415 kts 321°
2026-05-01 10:48 43.33267 18.34044 38250 ft 410 kts 321°
2026-05-01 10:48 43.37637 18.29011 38264 ft 413 kts 322°
2026-05-01 10:49 43.42035 18.23937 38279 ft 412 kts 322°
2026-05-01 10:49 43.46415 18.18861 38269 ft 411 kts 321°
2026-05-01 10:50 43.50804 18.13768 38255 ft 412 kts 322°
2026-05-01 10:50 43.55193 18.08677 38266 ft 413 kts 321°
2026-05-01 10:51 43.59574 18.03574 38263 ft 416 kts 321°
2026-05-01 10:51 43.63996 17.98411 38273 ft 417 kts 322°
2026-05-01 10:52 43.68428 17.93237 38287 ft 417 kts 322°
2026-05-01 10:52 43.72860 17.88056 38293 ft 417 kts 321°
2026-05-01 10:53 43.77287 17.82864 38311 ft 417 kts 322°
2026-05-01 10:53 43.81714 17.77659 38301 ft 418 kts 322°
2026-05-01 10:54 43.86145 17.72437 38319 ft 419 kts 322°
2026-05-01 10:54 43.90592 17.67193 38312 ft 420 kts 322°
2026-05-01 10:55 43.95015 17.61960 38330 ft 420 kts 322°
2026-05-01 10:55 43.99468 17.56687 38327 ft 420 kts 322°
2026-05-01 10:56 44.03912 17.51415 38355 ft 420 kts 322°
2026-05-01 10:56 44.08356 17.46126 38350 ft 421 kts 322°
2026-05-01 10:57 44.12802 17.40821 38353 ft 421 kts 322°
2026-05-01 10:57 44.17250 17.35495 38353 ft 421 kts 322°
2026-05-01 10:58 44.21698 17.30165 38360 ft 422 kts 322°
2026-05-01 10:58 44.26124 17.24866 38364 ft 421 kts 322°
2026-05-01 10:59 44.30574 17.19521 38366 ft 421 kts 322°
2026-05-01 10:59 44.34262 17.15075 38377 ft 421 kts 322°
2026-05-01 11:00 44.38700 17.09710 38376 ft 422 kts 322°
2026-05-01 11:00 44.43138 17.04345 38374 ft 422 kts 323°
2026-05-01 11:01 44.47550 16.98998 38373 ft 422 kts 323°
2026-05-01 11:01 44.51980 16.93624 38388 ft 422 kts 322°
2026-05-01 11:02 44.56267 16.87984 38387 ft 425 kts 316°
2026-05-01 11:02 44.60271 16.81895 38395 ft 425 kts 316°
2026-05-01 11:03 44.64276 16.75775 38380 ft 425 kts 316°
2026-05-01 11:03 44.68277 16.69655 38385 ft 425 kts 316°
2026-05-01 11:04 44.72281 16.63534 38397 ft 425 kts 316°
2026-05-01 11:04 44.76253 16.57441 38393 ft 425 kts 317°
2026-05-01 11:05 44.80251 16.51298 38369 ft 425 kts 317°
2026-05-01 11:05 44.84253 16.45134 38386 ft 425 kts 317°
2026-05-01 11:06 44.88218 16.39012 38392 ft 425 kts 317°
2026-05-01 11:06 44.92203 16.32834 38397 ft 425 kts 317°
2026-05-01 11:07 44.98180 16.23555 38369 ft 425 kts 317°
2026-05-01 11:07 45.02154 16.17371 38388 ft 425 kts 317°
2026-05-01 11:08 45.06127 16.11181 38390 ft 425 kts 317°
2026-05-01 11:09 45.12071 16.01874 38392 ft 425 kts 317°
2026-05-01 11:09 45.16006 15.95699 38396 ft 425 kts 317°
2026-05-01 11:10 45.21938 15.86367 38394 ft 425 kts 317°
2026-05-01 11:10 45.25893 15.80148 38397 ft 424 kts 317°
2026-05-01 11:11 45.29837 15.73927 38397 ft 424 kts 317°
2026-05-01 11:11 45.33774 15.67674 38400 ft 424 kts 317°
2026-05-01 11:12 45.37689 15.61455 38385 ft 424 kts 318°
2026-05-01 11:12 45.41618 15.55189 38400 ft 424 kts 318°
2026-05-01 11:13 45.45543 15.48917 38399 ft 424 kts 318°
2026-05-01 11:13 45.49463 15.42640 38393 ft 424 kts 318°
2026-05-01 11:14 45.53381 15.36364 38392 ft 424 kts 318°
2026-05-01 11:14 45.57270 15.30118 38397 ft 424 kts 318°
2026-05-01 11:15 45.61336 15.24064 38399 ft 420 kts 322°
2026-05-01 11:15 45.65566 15.18295 38403 ft 420 kts 323°
2026-05-01 11:16 45.69792 15.12520 38404 ft 420 kts 322°
2026-05-01 11:16 45.73967 15.06651 38372 ft 421 kts 322°
2026-05-01 11:17 45.78110 15.00758 38400 ft 419 kts 322°
2026-05-01 11:17 45.82251 14.94871 38409 ft 418 kts 322°
2026-05-01 11:18 45.86351 14.89035 38406 ft 417 kts 322°
2026-05-01 11:18 45.90475 14.83169 38406 ft 417 kts 322°
2026-05-01 11:19 45.94595 14.77307 38402 ft 417 kts 322°
2026-05-01 11:19 45.98706 14.71431 38385 ft 417 kts 322°
2026-05-01 11:20 46.02816 14.65541 38397 ft 417 kts 322°
2026-05-01 11:20 46.06919 14.59635 38395 ft 417 kts 322°
2026-05-01 11:21 46.11012 14.53727 38402 ft 416 kts 322°
2026-05-01 11:21 46.15082 14.47853 38399 ft 417 kts 322°
2026-05-01 11:22 46.19170 14.41939 38381 ft 416 kts 321°
2026-05-01 11:22 46.23263 14.36020 38392 ft 416 kts 321°
2026-05-01 11:23 46.27354 14.30079 38398 ft 416 kts 321°
2026-05-01 11:23 46.31440 14.24137 38394 ft 416 kts 321°
2026-05-01 11:24 46.35519 14.18191 38400 ft 417 kts 321°
2026-05-01 11:25 46.41612 14.09270 38397 ft 417 kts 321°
2026-05-01 11:25 46.47716 14.00303 38405 ft 416 kts 321°
2026-05-01 11:26 46.53821 13.91308 38403 ft 417 kts 321°
2026-05-01 11:27 46.57888 13.85294 38366 ft 417 kts 321°
2026-05-01 11:27 46.61932 13.79311 38378 ft 418 kts 320°
2026-05-01 11:28 46.66002 13.73271 38385 ft 418 kts 320°
2026-05-01 11:28 46.70074 13.67209 38380 ft 418 kts 320°
2026-05-01 11:29 46.76178 13.58110 38374 ft 418 kts 320°
2026-05-01 11:30 46.82244 13.49027 38351 ft 419 kts 320°
2026-05-01 11:30 46.86313 13.42926 38358 ft 419 kts 320°
2026-05-01 11:31 46.90381 13.36812 38357 ft 419 kts 320°
2026-05-01 11:31 46.94443 13.30684 38357 ft 419 kts 320°
2026-05-01 11:32 46.98500 13.24552 38346 ft 419 kts 320°
2026-05-01 11:32 47.02524 13.18442 38317 ft 419 kts 319°
2026-05-01 11:33 47.06581 13.12278 38321 ft 420 kts 319°
2026-05-01 11:33 47.10642 13.06093 38341 ft 421 kts 319°
2026-05-01 11:34 47.14702 12.99895 38343 ft 421 kts 319°
2026-05-01 11:34 47.18765 12.93697 38346 ft 421 kts 319°
2026-05-01 11:35 47.22798 12.87535 38323 ft 421 kts 318°
2026-05-01 11:35 47.26839 12.81304 38347 ft 420 kts 318°
2026-05-01 11:36 47.30870 12.75086 38353 ft 419 kts 318°
2026-05-01 11:36 47.34902 12.68865 38355 ft 420 kts 318°
2026-05-01 11:37 47.38926 12.62645 38358 ft 420 kts 318°
2026-05-01 11:37 47.42959 12.56395 38339 ft 420 kts 318°
2026-05-01 11:38 47.46985 12.50131 38351 ft 420 kts 317°
2026-05-01 11:38 47.51011 12.43848 38359 ft 420 kts 317°
2026-05-01 11:39 47.54998 12.37614 38357 ft 420 kts 317°
2026-05-01 11:39 47.59007 12.31331 38361 ft 420 kts 317°
2026-05-01 11:40 47.63014 12.25026 38364 ft 420 kts 316°
2026-05-01 11:40 47.66409 12.17890 38365 ft 425 kts 306°
2026-05-01 11:41 47.69537 12.10429 38368 ft 426 kts 306°
2026-05-01 11:41 47.72669 12.02946 38370 ft 426 kts 306°
2026-05-01 11:42 47.75793 11.95457 38365 ft 426 kts 306°
2026-05-01 11:42 47.78891 11.88008 38376 ft 426 kts 306°
2026-05-01 11:43 47.82005 11.80494 38364 ft 427 kts 306°
2026-05-01 11:43 47.85116 11.72966 38371 ft 427 kts 305°
2026-05-01 11:44 47.89769 11.61678 38371 ft 426 kts 305°
2026-05-01 11:44 47.92869 11.54136 38369 ft 426 kts 305°
2026-05-01 11:45 47.95934 11.46651 38362 ft 426 kts 305°
2026-05-01 11:45 47.99022 11.39097 38369 ft 426 kts 305°
2026-05-01 11:46 48.02107 11.31545 38379 ft 426 kts 305°
2026-05-01 11:46 48.05182 11.23983 38367 ft 426 kts 304°
2026-05-01 11:47 48.08246 11.16404 38366 ft 426 kts 304°
2026-05-01 11:47 48.11292 11.08861 38358 ft 425 kts 304°
2026-05-01 11:48 48.14344 11.01287 38367 ft 425 kts 304°
2026-05-01 11:48 48.17386 10.93703 38373 ft 424 kts 304°
2026-05-01 11:49 48.20420 10.86121 38375 ft 424 kts 304°
2026-05-01 11:49 48.23446 10.78531 38375 ft 424 kts 304°
2026-05-01 11:50 48.26476 10.70936 38363 ft 424 kts 304°
2026-05-01 11:50 48.29473 10.63386 38366 ft 424 kts 303°
2026-05-01 11:51 48.32483 10.55779 38361 ft 423 kts 303°
2026-05-01 11:51 48.35493 10.48160 38370 ft 423 kts 303°
2026-05-01 11:52 48.38499 10.40532 38372 ft 423 kts 303°
2026-05-01 11:52 48.41495 10.32897 38359 ft 423 kts 303°
2026-05-01 11:53 48.44461 10.25318 38365 ft 423 kts 303°
2026-05-01 11:53 48.47448 10.17680 38371 ft 423 kts 303°
2026-05-01 11:54 48.50422 10.10037 38372 ft 423 kts 303°
2026-05-01 11:54 48.53393 10.02385 38362 ft 423 kts 303°
2026-05-01 11:55 48.56358 9.94716 38353 ft 423 kts 302°
2026-05-01 11:55 48.59316 9.87047 38346 ft 423 kts 302°
2026-05-01 11:56 48.62275 9.79366 38347 ft 423 kts 302°
2026-05-01 11:56 48.65226 9.71676 38338 ft 423 kts 303°
2026-05-01 11:57 48.67770 9.65380 38342 ft 420 kts 310°
2026-05-01 11:57 48.71862 9.57201 38324 ft 419 kts 309°
2026-05-01 11:58 48.75382 9.50145 38328 ft 419 kts 309°
2026-05-01 11:59 48.80052 9.40735 38324 ft 420 kts 309°
2026-05-01 11:59 48.83553 9.33638 38339 ft 420 kts 309°
2026-05-01 12:00 48.88803 9.22998 38321 ft 420 kts 308°
2026-05-01 12:01 48.94057 9.12316 38330 ft 420 kts 308°
2026-05-01 12:01 48.97531 9.05231 38332 ft 420 kts 308°
2026-05-01 12:02 49.01024 8.98091 38333 ft 420 kts 308°
2026-05-01 12:02 49.04507 8.90933 38328 ft 420 kts 307°
2026-05-01 12:03 49.07982 8.83757 38323 ft 420 kts 307°
2026-05-01 12:03 49.11440 8.76623 38324 ft 420 kts 307°
2026-05-01 12:04 49.14918 8.69429 38325 ft 421 kts 307°
2026-05-01 12:04 49.18392 8.62238 38327 ft 421 kts 307°
2026-05-01 12:05 49.21837 8.55074 38338 ft 421 kts 307°
2026-05-01 12:05 49.27021 8.44234 38357 ft 421 kts 307°
2026-05-01 12:06 49.30476 8.36992 38331 ft 421 kts 307°
2026-05-01 12:06 49.33931 8.29749 38337 ft 421 kts 307°
2026-05-01 12:07 49.37377 8.22496 38334 ft 421 kts 306°
2026-05-01 12:07 49.40823 8.15218 38332 ft 421 kts 306°
2026-05-01 12:08 49.44269 8.07933 38336 ft 421 kts 306°
2026-05-01 12:08 49.47684 8.00686 38329 ft 420 kts 306°
2026-05-01 12:09 49.51116 7.93401 38326 ft 420 kts 306°
2026-05-01 12:09 49.54546 7.86113 38324 ft 420 kts 306°
2026-05-01 12:10 49.59671 7.75127 38320 ft 420 kts 306°
2026-05-01 12:11 49.64754 7.64192 38323 ft 420 kts 305°
2026-05-01 12:11 49.68149 7.56865 38325 ft 420 kts 305°
2026-05-01 12:12 49.71548 7.49512 38336 ft 419 kts 305°
2026-05-01 12:12 49.74929 7.42175 38346 ft 419 kts 304°
2026-05-01 12:13 49.78302 7.34821 38344 ft 418 kts 304°
2026-05-01 12:13 49.81670 7.27485 38340 ft 418 kts 304°
2026-05-01 12:14 49.85032 7.20147 38332 ft 418 kts 304°
2026-05-01 12:14 49.88355 7.12834 38333 ft 418 kts 304°
2026-05-01 12:15 49.91699 7.05432 38318 ft 419 kts 304°
2026-05-01 12:15 49.95048 6.98030 38334 ft 419 kts 304°
2026-05-01 12:16 49.98383 6.90652 38317 ft 419 kts 304°
2026-05-01 12:16 50.01723 6.83240 38327 ft 418 kts 304°
2026-05-01 12:17 50.05056 6.75826 38321 ft 419 kts 304°
2026-05-01 12:17 50.08399 6.68396 38312 ft 419 kts 304°
2026-05-01 12:18 50.11740 6.60953 38311 ft 420 kts 304°
2026-05-01 12:18 50.15079 6.53477 38291 ft 420 kts 304°
2026-05-01 12:19 50.18401 6.45986 38295 ft 419 kts 303°
2026-05-01 12:19 50.21544 6.38395 38289 ft 419 kts 301°
2026-05-01 12:20 50.24564 6.30584 38284 ft 420 kts 300°
2026-05-01 12:20 50.27573 6.22756 38293 ft 420 kts 300°
2026-05-01 12:21 50.30610 6.14953 38300 ft 420 kts 300°
2026-05-01 12:21 50.33662 6.07161 38297 ft 420 kts 300°
2026-05-01 12:22 50.36693 5.99415 38295 ft 420 kts 300°
2026-05-01 12:22 50.39738 5.91584 38283 ft 421 kts 300°
2026-05-01 12:23 50.42786 5.83712 38279 ft 422 kts 300°
2026-05-01 12:23 50.45831 5.75839 38282 ft 422 kts 300°
2026-05-01 12:24 50.48867 5.67941 38282 ft 423 kts 300°
2026-05-01 12:24 50.51899 5.60031 38281 ft 423 kts 300°
2026-05-01 12:25 50.56431 5.48194 38273 ft 423 kts 299°
2026-05-01 12:26 50.59466 5.40235 38273 ft 424 kts 300°
2026-05-01 12:26 50.63997 5.28265 38284 ft 424 kts 299°
2026-05-01 12:27 50.68508 5.16309 38283 ft 425 kts 300°
2026-05-01 12:28 50.73041 5.04268 38266 ft 426 kts 299°
2026-05-01 12:29 50.77568 4.92148 38262 ft 427 kts 299°
2026-05-01 12:29 50.82077 4.80054 38274 ft 428 kts 298°
2026-05-01 12:30 50.86594 4.67884 38292 ft 427 kts 299°
2026-05-01 12:31 50.89597 4.59748 38288 ft 428 kts 298°
2026-05-01 12:31 50.92605 4.51596 38281 ft 429 kts 298°
2026-05-01 12:32 50.95586 4.43468 38280 ft 429 kts 298°
2026-05-01 12:32 51.00074 4.31173 38278 ft 429 kts 298°
2026-05-01 12:33 51.03061 4.22973 38277 ft 429 kts 298°
2026-05-01 12:33 51.06047 4.14732 38265 ft 430 kts 298°
2026-05-01 12:34 51.09009 4.06535 38259 ft 430 kts 298°
2026-05-01 12:34 51.11987 3.98270 38259 ft 430 kts 298°
2026-05-01 12:35 51.14954 3.89993 38251 ft 430 kts 298°
2026-05-01 12:35 51.17919 3.81720 38252 ft 430 kts 298°